Location: Maiden
(35.5760°N, 81.2120°W)
Time: 17:52:02
(UTC-05:00)

Daily predictions for brighter satellites

Satellite Brightness Start Highest point End
(mag) Time Altitude Azimuth Time Altitude Azimuth Time Altitude Azimuth
Sich 1 4.1 18:25:30 10° SSW 18:29:49 53° W 18:34:11 10° N
H-2A R/B 2.6 18:26:17 10° SSE 18:29:55 71° ENE 18:33:37 10° N
GEOS 3 Rocket 3.6 18:24:57 10° SE 18:30:12 76° NE 18:35:27 10° NNW
CSL-04 Debris 4.2 18:25:23 10° SSE 18:30:48 71° ENE 18:36:17 10° N
Cosmos 1606 3.0 18:27:43 10° N 18:31:38 76° W 18:35:30 10° S
Lacrosse 5 3.8 18:30:21 10° W 18:34:22 23° NW 18:38:24 10° NNE
Tiangong 2 2.8 18:32:14 10° NW 18:34:47 21° N 18:37:18 10° ENE
Cosmos 2315 Rocket 4.3 18:29:40 10° SSE 18:35:31 46° E 18:41:27 10° NNE
Cosmos 1633 4.0 18:38:46 10° SE 18:41:20 18° E 18:43:54 10° NE
CZ-2C R/B 4.4 18:38:28 10° NE 18:42:27 32° E 18:46:27 10° SSE
Ariane Rocket 3.1 18:38:58 10° SSE 18:43:55 55° ENE 18:48:54 10° N
Meteor 2-6 Rocket 4.2 18:39:10 10° N 18:44:29 55° E 18:49:44 10° SSE
SKYMED 2 4.1 18:41:00 10° N 18:45:18 64° WNW 18:49:36 10° SSW
Cosmos 841 Rocket 3.4 18:40:54 10° SSW 18:46:02 82° ESE 18:51:12 10° NNE
Meteor 1-27 Rocket 4.4 18:41:31 10° NNE 18:46:34 33° ENE 18:51:42 10° SE
YAOGAN 1 2.5 18:43:20 10° SSE 18:47:38 80° ENE 18:51:59 10° N
USA 229 DEB 3.9 18:42:12 10° NNW 18:49:33 87° ENE 18:57:05 10° SSE
USA 229 3.9 18:42:19 10° NNW 18:49:39 86° ENE 18:57:11 10° SSE
NOSS 3-1 (A) 4.3 18:43:40 10° NNW 18:51:12 51° NE 18:59:31 10° SE
Cosmos 1633 Rocket 4.3 18:47:27 10° SSW 18:51:42 45° W 18:55:57 10° N
Cosmos 1862 3.3 18:48:57 10° S 18:52:53 61° E 18:56:53 10° NNE
Cosmos 1937 Rocket 3.5 18:48:48 10° NNW 18:54:08 85° ENE 18:59:24 10° SSE
CZ-2D R/B 4.2 18:54:03 10° SE 18:57:11 25° ENE 19:00:19 10° NNE
Cosmos 1943 3.1 18:52:33 10° NNW 18:58:13 78° ENE 19:03:50 10° SSE
Sakura Rocket 4.0 18:57:04 10° WSW 19:00:13 28° S 19:03:05 13° ESE
Meteor 1-10 Rocket 4.1 18:56:52 10° N 19:02:26 79° E 19:07:59 10° SSE
YAOGAN 6 3.2 18:59:23 10° SE 19:02:36 33° ENE 19:05:52 10° N
Cosmos 2298 Rocket 4.0 18:58:22 10° N 19:03:39 60° ENE 19:08:54 10° SSE
Lacrosse 5 rocket 3.1 19:02:24 10° SE 19:03:56 13° ESE 19:03:56 13° ESE
Okean 1-7 4.1 19:01:29 10° NNE 19:04:51 22° ENE 19:07:44 12° ESE
ATLAS CENTAUR R/B 3.7 19:02:09 10° NW 19:06:30 32° WSW 19:10:39 10° S
Cosmos 1844 Rocket 3.2 19:05:07 10° SSE 19:10:13 36° ESE 19:15:19 10° NE
MONITOR-E 3.9 19:07:41 10° SSE 19:10:33 62° ENE 19:13:26 10° N
Timation 1 Rocket 4.3 19:05:06 10° S 19:11:00 67° ESE 19:16:54 10° NNE
Cosmos 1242 Rocket 2.9 19:09:58 10° SSW 19:13:24 62° W 19:16:50 10° N
Cosmos 1939 Rocket 3.5 19:17:23 25° ESE 19:18:31 30° ENE 19:21:54 10° NNE
Hubble Space Telescope 3.4 19:18:59 10° SW 19:20:44 12° SSW 19:22:29 10° S
CZ-4 R/B 4.1 19:23:19 10° SSW 19:26:19 21° W 19:29:21 10° NW
USA 234 4.3 19:20:16 10° SSE 19:26:30 47° SW 19:32:47 10° NW
SPOT 3 Rocket 3.7 19:24:06 10° SE 19:29:03 49° ENE 19:34:03 10° N
SJ 16-02 1.7 19:29:20 10° NNW 19:33:42 66° WSW 19:38:04 10° S
COSMOS 2455 3.1 19:29:09 10° NNW 19:34:55 45° ENE 19:37:25 30° ESE
Cosmos 1869 Rocket 3.4 19:33:33 10° S 19:37:56 69° E 19:42:23 10° NNE
Cosmos 2098 Rocket 4.0 19:33:31 10° N 19:40:10 53° E 19:45:35 10° SSE
NOSS 2-1 (C) 3.3 19:38:44 10° SW 19:42:16 64° WNW 19:43:41 33° NNE
Envisat 4.1 19:39:11 10° S 19:44:01 46° W 19:48:54 10° NNW
NOSS 2-1 (D) 3.5 19:40:55 10° SW 19:44:27 59° WNW 19:45:52 32° N
Meteor 1-25 Rocket 4.4 19:39:48 10° SSE 19:45:08 45° E 19:50:26 10° NNE
Cosmos 1356 Rocket 3.6 19:44:38 10° NNW 19:48:37 69° W 19:52:37 10° S
Milstar 3 Cent rocket 3.2 19:45:01 10° WSW 19:49:22 29° SSW 19:51:04 23° SSE
Meteor 2-21 Rocket 4.4 19:46:07 10° N 19:52:12 84° W 19:58:14 10° S
Meteor 2-16 Rocket 4.3 19:50:44 10° N 19:56:53 87° E 20:03:01 10° S
Cosmos 1174 4.4 19:53:21 10° SSW 19:58:07 84° ESE 20:00:53 32° NNE
Cosmos 2327 Rocket 4.4 19:53:59 10° N 20:00:03 60° E 20:03:26 27° SSE
Cosmos 1610 Rocket 4.5 20:00:07 10° N 20:06:22 58° E 20:07:03 55° ESE
Cosmos 2074 Rocket 3.9 20:01:31 10° N 20:07:46 88° W 20:14:00 10° S
Cosmos 2184 Rocket 3.9 20:02:40 10° N 20:09:05 89° W 20:15:26 10° S
Cosmos 1844 3.6 20:05:10 10° SSW 20:10:50 85° WNW 20:13:27 34° NNE
Tiangong 2 3.7 20:08:56 10° NW 20:10:00 19° NW 20:10:00 19° NW
Cosmos 1812 3.7 20:10:24 10° NNW 20:13:47 46° WNW 20:13:47 46° WNW
Cosmos 1125 Rocket 3.6 20:11:03 10° NNW 20:16:20 76° WSW 20:17:35 52° S
Atlas Centaur 2 4.0 20:17:44 10° SSW 20:21:43 24° SSE 20:21:43 24° SSE
CZ-4C R/B 2.8 20:18:32 10° SSW 20:21:31 39° SSW 20:21:31 39° SSW
NOAA 11 4.5 20:18:48 11° S 20:24:02 64° WSW 20:29:26 10° NNW
Lacrosse 5 rocket 4.0 20:39:05 10° WSW 20:39:40 14° WSW 20:39:40 14° WSW
Cosmos 1844 Rocket 4.5 20:49:17 10° WSW 20:54:05 28° WNW 20:57:28 16° NNW
